Torna al catalogo

COSMOS 2499 DEB

AttivoPO
NORAD 55732·DEBRIS·🇷🇺 Russia

Lanciato May 23, 2014 da Plesetsk Cosmodrome

Loading…

Prossimi Passaggi (prossime 24 ore)

TLE

In scadenzaSource: Space-Track

Epoca: Sep 9, 2026, 12:05 UTC

1 55732U 14028AU  26252.50369235  .00005021  00000-0  18513-1 0  9994
2 55732  82.3193 182.1920 0118536 146.5466 214.3201 12.90283107107003

Traccia COSMOS 2499 DEB in tempo reale con AllMySat

Download on the App Store